THY9314 ZBAA-UAAA

Flight info

Callsign THY9314
Flight time N/A
Altitude 36000
Route BOTPU W47 VIGEK W96 UPSUR W69 DKO W66 NUKTI B215 KABDO W119 GOBOK A343 RULAD M610 PIGAL
Aircraft A333/H-V/N

Departure

Time N/A
Airport Beijing Capital International Airport (ZBAA)

Arrival

Time 2026-04-24 15:19
Airport Almaty International Airport (UAAA)
Time Latitude Longitude Altitude Speed Heading
2026-04-24 11:10 40.05601 116.59473 0 ft 0 kts 263°
2026-04-24 11:19 40.05601 116.59471 0 ft 0 kts 276°
2026-04-24 11:19 40.05602 116.59470 0 ft 0 kts 287°
2026-04-24 11:19 40.05603 116.59468 0 ft 0 kts 305°
2026-04-24 11:20 40.05608 116.59464 0 ft 2 kts 330°
2026-04-24 11:20 40.05626 116.59463 0 ft 4 kts 15°
2026-04-24 11:20 40.05657 116.59503 0 ft 10 kts 50°
2026-04-24 11:20 40.05717 116.59602 0 ft 17 kts 46°
2026-04-24 11:21 40.05823 116.59716 0 ft 21 kts 41°
2026-04-24 11:21 40.05887 116.59852 0 ft 13 kts 77°
2026-04-24 11:21 40.05912 116.59928 0 ft 8 kts 50°
2026-04-24 11:21 40.05966 116.59957 0 ft 7 kts
2026-04-24 11:22 40.06059 116.59940 0 ft 39 kts 352°
2026-04-24 11:22 40.06637 116.59846 0 ft 124 kts 353°
2026-04-24 11:22 40.07673 116.59668 0 ft 163 kts 352°
2026-04-24 11:22 40.08788 116.59505 0 ft 161 kts 354°
2026-04-24 11:23 40.09930 116.59371 0 ft 167 kts 354°
2026-04-24 11:23 40.11088 116.59245 0 ft 166 kts 355°
2026-04-24 11:23 40.12360 116.59109 0 ft 204 kts 354°
2026-04-24 11:23 40.13913 116.58941 0 ft 244 kts 355°
2026-04-24 11:24 40.15620 116.58756 0 ft 247 kts 355°
2026-04-24 11:24 40.17366 116.58568 0 ft 258 kts 355°
2026-04-24 11:24 40.19089 116.58100 0 ft 252 kts 333°
2026-04-24 11:24 40.20408 116.56589 0 ft 259 kts 301°
2026-04-24 11:25 40.20954 116.54377 0 ft 257 kts 271°
2026-04-24 11:25 40.20569 116.52098 0 ft 264 kts 242°
2026-04-24 11:25 40.19603 116.49996 0 ft 273 kts 237°
2026-04-24 11:25 40.18569 116.47925 0 ft 272 kts 236°
2026-04-24 11:26 40.17500 116.45830 0 ft 280 kts 236°
2026-04-24 11:26 40.16414 116.43716 0 ft 280 kts 236°
2026-04-24 11:26 40.15313 116.41561 0 ft 290 kts 237°
2026-04-24 11:26 40.14184 116.39318 0 ft 301 kts 237°
2026-04-24 11:27 40.13026 116.36972 0 ft 311 kts 238°
2026-04-24 11:27 40.11850 116.34537 0 ft 320 kts 238°
2026-04-24 11:27 40.10669 116.32033 0 ft 328 kts 239°
2026-04-24 11:27 40.09484 116.29446 0 ft 335 kts 240°
2026-04-24 11:28 40.08385 116.26781 0 ft 340 kts 244°
2026-04-24 11:28 40.07454 116.24064 0 ft 345 kts 248°
2026-04-24 11:28 40.06622 116.21113 0 ft 349 kts 252°
2026-04-24 11:28 40.05911 116.18067 0 ft 352 kts 255°
2026-04-24 11:29 40.05300 116.14962 0 ft 355 kts 257°
2026-04-24 11:29 40.04768 116.11805 0 ft 357 kts 258°
2026-04-24 11:29 40.04297 116.08610 0 ft 359 kts 260°
2026-04-24 11:29 40.03877 116.05405 0 ft 360 kts 261°
2026-04-24 11:30 40.03493 116.02179 0 ft 360 kts 262°
2026-04-24 11:30 40.03137 115.98941 0 ft 360 kts 262°
2026-04-24 11:30 40.02806 115.95713 0 ft 359 kts 263°
2026-04-24 11:30 40.02488 115.92471 0 ft 358 kts 263°
2026-04-24 11:31 40.02183 115.89232 0 ft 361 kts 263°
2026-04-24 11:31 40.01885 115.85970 0 ft 365 kts 263°
2026-04-24 11:31 40.01592 115.82697 0 ft 369 kts 263°
2026-04-24 11:31 40.01298 115.79359 0 ft 372 kts 263°
2026-04-24 11:32 40.01004 115.76004 0 ft 374 kts 263°
2026-04-24 11:32 40.00710 115.72617 0 ft 376 kts 263°
2026-04-24 11:32 40.00422 115.69288 0 ft 378 kts 263°
2026-04-24 11:32 40.00125 115.65867 0 ft 381 kts 263°
2026-04-24 11:33 39.99825 115.62405 0 ft 386 kts 263°
2026-04-24 11:33 39.99519 115.58889 0 ft 391 kts 263°
2026-04-24 11:33 39.99214 115.55386 0 ft 396 kts 263°
2026-04-24 11:33 39.98931 115.51798 0 ft 399 kts 267°
2026-04-24 11:34 39.98879 115.48200 0 ft 403 kts 270°
2026-04-24 11:34 39.98943 115.44527 0 ft 407 kts 272°
2026-04-24 11:34 39.99056 115.40826 0 ft 410 kts 272°
2026-04-24 11:34 39.99199 115.37101 0 ft 413 kts 273°
2026-04-24 11:35 39.99360 115.33325 0 ft 419 kts 273°
2026-04-24 11:35 39.99533 115.29503 0 ft 425 kts 273°
2026-04-24 11:35 39.99716 115.25620 0 ft 430 kts 274°
2026-04-24 11:35 39.99905 115.21700 0 ft 435 kts 274°
2026-04-24 11:36 40.00096 115.17786 0 ft 440 kts 274°
2026-04-24 11:36 40.00291 115.13784 0 ft 444 kts 274°
2026-04-24 11:36 40.00489 115.09736 0 ft 448 kts 274°
2026-04-24 11:36 40.00689 115.05659 0 ft 452 kts 274°
2026-04-24 11:37 40.00889 115.01553 0 ft 455 kts 274°
2026-04-24 11:37 40.01090 114.97417 0 ft 458 kts 274°
2026-04-24 11:37 40.01291 114.93239 0 ft 461 kts 274°
2026-04-24 11:37 40.01492 114.89049 0 ft 464 kts 273°
2026-04-24 11:38 40.01693 114.84842 0 ft 466 kts 274°
2026-04-24 11:38 40.01893 114.80621 0 ft 467 kts 273°
2026-04-24 11:38 40.02092 114.76386 0 ft 468 kts 273°
2026-04-24 11:38 40.02288 114.72196 0 ft 469 kts 273°
2026-04-24 11:39 40.02485 114.67946 0 ft 469 kts 273°
2026-04-24 11:39 40.02681 114.63690 0 ft 469 kts 273°
2026-04-24 11:39 40.02876 114.59431 0 ft 469 kts 273°
2026-04-24 11:39 40.03068 114.55184 0 ft 469 kts 273°
2026-04-24 11:40 40.03259 114.50934 0 ft 469 kts 273°
2026-04-24 11:40 40.03448 114.46683 0 ft 468 kts 273°
2026-04-24 11:40 40.03635 114.42452 0 ft 468 kts 273°
2026-04-24 11:40 40.03820 114.38212 0 ft 467 kts 273°
2026-04-24 11:41 40.04005 114.33972 0 ft 467 kts 273°
2026-04-24 11:41 40.04185 114.29788 0 ft 469 kts 273°
2026-04-24 11:41 40.04367 114.25519 0 ft 472 kts 273°
2026-04-24 11:41 40.04549 114.21224 0 ft 475 kts 273°
2026-04-24 11:42 40.04883 114.16936 0 ft 477 kts 283°
2026-04-24 11:42 40.05966 114.12858 0 ft 479 kts 294°
2026-04-24 11:42 40.07383 114.08902 0 ft 481 kts 296°
2026-04-24 11:42 40.08884 114.04989 0 ft 482 kts 297°
2026-04-24 11:43 40.10427 114.01089 0 ft 483 kts 297°
2026-04-24 11:43 40.11992 113.97201 0 ft 484 kts 297°
2026-04-24 11:43 40.13042 113.94614 0 ft 485 kts 298°
2026-04-24 11:43 40.15141 113.89464 0 ft 485 kts 298°
2026-04-24 11:44 40.16731 113.85569 0 ft 486 kts 298°
2026-04-24 11:44 40.18325 113.81667 0 ft 486 kts 298°
2026-04-24 11:44 40.19913 113.77774 0 ft 486 kts 298°
2026-04-24 11:44 40.20973 113.75175 0 ft 486 kts 298°
2026-04-24 11:45 40.22562 113.71275 0 ft 486 kts 298°
2026-04-24 11:45 40.24154 113.67365 0 ft 486 kts 298°
2026-04-24 11:45 40.25739 113.63465 0 ft 486 kts 298°
2026-04-24 11:45 40.27328 113.59549 0 ft 486 kts 297°
2026-04-24 11:46 40.28915 113.55633 0 ft 486 kts 298°
2026-04-24 11:46 40.30494 113.51733 0 ft 486 kts 297°
2026-04-24 11:46 40.32082 113.47804 0 ft 486 kts 298°
2026-04-24 11:46 40.33665 113.43882 0 ft 486 kts 297°
2026-04-24 11:47 40.35224 113.40014 0 ft 486 kts 297°
2026-04-24 11:47 40.36801 113.36098 0 ft 486 kts 297°
2026-04-24 11:47 40.38376 113.32182 0 ft 486 kts 297°
2026-04-24 11:47 40.39954 113.28251 0 ft 486 kts 297°
2026-04-24 11:48 40.41531 113.24319 0 ft 486 kts 297°
2026-04-24 11:48 40.43103 113.20393 0 ft 486 kts 297°
2026-04-24 11:48 40.44672 113.16469 0 ft 486 kts 297°
2026-04-24 11:48 40.46243 113.12535 0 ft 486 kts 297°
2026-04-24 11:49 40.47811 113.08602 0 ft 486 kts 297°
2026-04-24 11:49 40.49376 113.04673 0 ft 486 kts 297°
2026-04-24 11:49 40.50946 113.00724 0 ft 486 kts 297°
2026-04-24 11:49 40.52491 112.96831 0 ft 486 kts 297°
2026-04-24 11:50 40.54056 112.92883 0 ft 486 kts 297°
2026-04-24 11:50 40.55621 112.88927 0 ft 486 kts 297°
2026-04-24 11:50 40.57178 112.84977 0 ft 486 kts 296°
2026-04-24 11:50 40.58385 112.80833 0 ft 485 kts 285°
2026-04-24 11:51 40.59234 112.76540 0 ft 485 kts 283°
2026-04-24 11:51 40.59991 112.72202 0 ft 486 kts 282°
2026-04-24 11:51 40.60706 112.67858 0 ft 486 kts 282°
2026-04-24 11:51 40.61389 112.63570 0 ft 486 kts 282°
2026-04-24 11:52 40.62068 112.59206 0 ft 486 kts 281°
2026-04-24 11:52 40.62736 112.54854 0 ft 486 kts 281°
2026-04-24 11:52 40.63397 112.50501 0 ft 486 kts 281°
2026-04-24 11:52 40.64058 112.46122 0 ft 486 kts 281°
2026-04-24 11:53 40.64714 112.41753 0 ft 486 kts 281°
2026-04-24 11:53 40.65367 112.37378 0 ft 486 kts 281°
2026-04-24 11:53 40.66018 112.33001 0 ft 486 kts 281°
2026-04-24 11:53 40.66666 112.28627 0 ft 486 kts 281°
2026-04-24 11:54 40.67302 112.24314 0 ft 486 kts 281°
2026-04-24 11:54 40.67943 112.19944 0 ft 486 kts 281°
2026-04-24 11:54 40.68582 112.15585 0 ft 486 kts 281°
2026-04-24 11:54 40.69220 112.11209 0 ft 486 kts 281°
2026-04-24 11:55 40.69856 112.06833 0 ft 486 kts 281°
2026-04-24 11:55 40.70490 112.02455 0 ft 486 kts 281°
2026-04-24 11:55 40.71121 111.98088 0 ft 486 kts 281°
2026-04-24 11:55 40.71751 111.93711 0 ft 486 kts 281°
2026-04-24 11:56 40.72380 111.89333 0 ft 486 kts 281°
2026-04-24 11:56 40.73005 111.84959 0 ft 486 kts 281°
2026-04-24 11:56 40.73630 111.80575 0 ft 486 kts 281°
2026-04-24 11:56 40.74253 111.76194 0 ft 486 kts 280°
2026-04-24 11:57 40.74875 111.71806 0 ft 486 kts 280°
2026-04-24 11:57 40.75494 111.67428 0 ft 486 kts 280°
2026-04-24 11:57 40.76105 111.63091 0 ft 486 kts 280°
2026-04-24 11:57 40.76720 111.58711 0 ft 486 kts 280°
2026-04-24 11:58 40.77333 111.54332 0 ft 486 kts 280°
2026-04-24 11:58 40.77952 111.49903 0 ft 486 kts 280°
2026-04-24 11:58 40.78562 111.45520 0 ft 486 kts 280°
2026-04-24 11:58 40.79162 111.41198 0 ft 486 kts 280°
2026-04-24 11:59 40.79769 111.36807 0 ft 486 kts 280°
2026-04-24 11:59 40.80382 111.32367 0 ft 486 kts 280°
2026-04-24 11:59 40.80977 111.28036 0 ft 486 kts 280°
2026-04-24 11:59 40.81578 111.23653 0 ft 486 kts 280°
2026-04-24 12:00 40.82179 111.19261 0 ft 486 kts 280°
2026-04-24 12:00 40.82778 111.14866 0 ft 486 kts 280°
2026-04-24 12:00 40.83375 111.10474 0 ft 486 kts 280°
2026-04-24 12:00 40.83971 111.06074 0 ft 486 kts 280°
2026-04-24 12:01 40.84564 111.01686 0 ft 486 kts 280°
2026-04-24 12:01 40.85156 110.97291 0 ft 486 kts 280°
2026-04-24 12:01 40.85745 110.92906 0 ft 486 kts 280°
2026-04-24 12:01 40.86336 110.88492 0 ft 486 kts 280°
2026-04-24 12:02 40.86922 110.84101 0 ft 486 kts 280°
2026-04-24 12:02 40.87500 110.79755 0 ft 486 kts 280°
2026-04-24 12:02 40.88084 110.75353 0 ft 486 kts 280°
2026-04-24 12:02 40.88667 110.70949 0 ft 486 kts 279°
2026-04-24 12:03 40.89248 110.66543 0 ft 486 kts 279°
2026-04-24 12:03 40.89825 110.62150 0 ft 486 kts 279°
2026-04-24 12:03 40.90403 110.57743 0 ft 486 kts 279°
2026-04-24 12:03 40.90978 110.53338 0 ft 486 kts 279°
2026-04-24 12:04 40.91551 110.48937 0 ft 486 kts 279°
2026-04-24 12:04 40.92123 110.44531 0 ft 486 kts 279°
2026-04-24 12:04 40.92692 110.40134 0 ft 486 kts 279°
2026-04-24 12:04 40.93257 110.35754 0 ft 486 kts 279°
2026-04-24 12:05 40.93818 110.31397 0 ft 486 kts 279°
2026-04-24 12:05 40.94390 110.26935 0 ft 486 kts 279°
2026-04-24 12:05 40.94945 110.22594 0 ft 486 kts 279°
2026-04-24 12:05 40.95506 110.18192 0 ft 486 kts 279°
2026-04-24 12:06 40.96066 110.13776 0 ft 486 kts 279°
2026-04-24 12:06 40.96626 110.09356 0 ft 486 kts 279°
2026-04-24 12:06 40.97184 110.04935 0 ft 486 kts 279°
2026-04-24 12:06 40.97738 110.00528 0 ft 486 kts 279°
2026-04-24 12:07 40.98293 109.96107 0 ft 486 kts 279°
2026-04-24 12:07 40.98837 109.91747 0 ft 486 kts 279°
2026-04-24 12:07 40.99393 109.87286 0 ft 486 kts 279°
2026-04-24 12:07 40.99935 109.82924 0 ft 486 kts 279°
2026-04-24 12:08 41.00481 109.78513 0 ft 486 kts 279°
2026-04-24 12:08 41.01027 109.74088 0 ft 486 kts 279°
2026-04-24 12:08 41.01569 109.69677 0 ft 486 kts 279°
2026-04-24 12:08 41.02111 109.65255 0 ft 486 kts 279°
2026-04-24 12:09 41.02651 109.60836 0 ft 486 kts 279°
2026-04-24 12:09 41.03190 109.56411 0 ft 486 kts 279°
2026-04-24 12:09 41.03727 109.51988 0 ft 486 kts 279°
2026-04-24 12:09 41.04255 109.47617 0 ft 486 kts 279°
2026-04-24 12:10 41.04794 109.43151 0 ft 486 kts 279°
2026-04-24 12:10 41.05327 109.38714 0 ft 486 kts 279°
2026-04-24 12:10 41.05849 109.34354 0 ft 486 kts 279°
2026-04-24 12:11 41.06903 109.25512 0 ft 486 kts 279°
2026-04-24 12:11 41.07427 109.21092 0 ft 486 kts 279°
2026-04-24 12:11 41.07950 109.16663 0 ft 486 kts 278°
2026-04-24 12:11 41.08470 109.12246 0 ft 486 kts 279°
2026-04-24 12:12 41.08989 109.07826 0 ft 486 kts 278°
2026-04-24 12:12 41.09506 109.03402 0 ft 486 kts 279°
2026-04-24 12:12 41.10022 108.98973 0 ft 486 kts 278°
2026-04-24 12:12 41.10537 108.94547 0 ft 486 kts 278°
2026-04-24 12:13 41.11050 108.90109 0 ft 486 kts 278°
2026-04-24 12:13 41.11561 108.85685 0 ft 486 kts 278°
2026-04-24 12:13 41.12070 108.81254 0 ft 486 kts 278°
2026-04-24 12:13 41.12578 108.76818 0 ft 486 kts 278°
2026-04-24 12:14 41.13078 108.72439 0 ft 486 kts 278°
2026-04-24 12:14 41.13582 108.68009 0 ft 486 kts 278°
2026-04-24 12:14 41.14084 108.63574 0 ft 486 kts 278°
2026-04-24 12:14 41.14584 108.59148 0 ft 486 kts 278°
2026-04-24 12:15 41.15083 108.54716 0 ft 486 kts 278°
2026-04-24 12:15 41.15581 108.50271 0 ft 486 kts 278°
2026-04-24 12:15 41.16076 108.45843 0 ft 486 kts 278°
2026-04-24 12:15 41.16571 108.41398 0 ft 486 kts 278°
2026-04-24 12:16 41.17063 108.36965 0 ft 486 kts 278°
2026-04-24 12:16 41.17553 108.32533 0 ft 486 kts 278°
2026-04-24 12:16 41.18036 108.28144 0 ft 486 kts 278°
2026-04-24 12:16 41.18523 108.23710 0 ft 486 kts 278°
2026-04-24 12:17 41.19009 108.19267 0 ft 486 kts 278°
2026-04-24 12:17 41.19491 108.14839 0 ft 486 kts 278°
2026-04-24 12:17 41.19973 108.10401 0 ft 486 kts 278°
2026-04-24 12:17 41.20454 108.05950 0 ft 486 kts 278°
2026-04-24 12:18 41.20933 108.01505 0 ft 486 kts 278°
2026-04-24 12:18 41.21410 107.97059 0 ft 486 kts 278°
2026-04-24 12:18 41.21885 107.92615 0 ft 486 kts 278°
2026-04-24 12:18 41.22359 107.88166 0 ft 486 kts 278°
2026-04-24 12:19 41.22829 107.83734 0 ft 486 kts 278°
2026-04-24 12:19 41.23300 107.79286 0 ft 486 kts 278°
2026-04-24 12:19 41.23768 107.74843 0 ft 486 kts 278°
2026-04-24 12:19 41.24235 107.70393 0 ft 486 kts 278°
2026-04-24 12:20 41.24699 107.65952 0 ft 486 kts 278°
2026-04-24 12:20 41.25162 107.61505 0 ft 486 kts 278°
2026-04-24 12:20 41.25617 107.57112 0 ft 486 kts 278°
2026-04-24 12:20 41.26077 107.52661 0 ft 486 kts 278°
2026-04-24 12:21 41.26537 107.48198 0 ft 486 kts 277°
2026-04-24 12:21 41.26993 107.43753 0 ft 486 kts 277°
2026-04-24 12:21 41.27447 107.39306 0 ft 486 kts 277°
2026-04-24 12:21 41.27902 107.34829 0 ft 486 kts 277°
2026-04-24 12:22 41.28353 107.30385 0 ft 486 kts 277°
2026-04-24 12:22 41.28797 107.25986 0 ft 486 kts 277°
2026-04-24 12:22 41.29245 107.21528 0 ft 486 kts 277°
2026-04-24 12:22 41.29691 107.17079 0 ft 486 kts 277°
2026-04-24 12:23 41.30135 107.12620 0 ft 486 kts 277°
2026-04-24 12:23 41.30582 107.08123 0 ft 486 kts 277°
2026-04-24 12:23 41.31018 107.03724 0 ft 486 kts 277°
2026-04-24 12:23 41.31457 106.99267 0 ft 486 kts 277°
2026-04-24 12:24 41.31894 106.94810 0 ft 486 kts 277°
2026-04-24 12:24 41.32330 106.90346 0 ft 486 kts 277°
2026-04-24 12:24 41.32764 106.85891 0 ft 486 kts 277°
2026-04-24 12:24 41.33197 106.81431 0 ft 486 kts 277°
2026-04-24 12:25 41.33632 106.76915 0 ft 486 kts 277°
2026-04-24 12:25 41.34055 106.72523 0 ft 486 kts 277°
2026-04-24 12:25 41.34482 106.68056 0 ft 486 kts 277°
2026-04-24 12:25 41.34908 106.63598 0 ft 486 kts 277°
2026-04-24 12:26 41.35332 106.59128 0 ft 486 kts 277°
2026-04-24 12:26 41.35754 106.54662 0 ft 486 kts 277°
2026-04-24 12:26 41.36175 106.50193 0 ft 486 kts 277°
2026-04-24 12:26 41.36593 106.45732 0 ft 486 kts 277°
2026-04-24 12:27 41.37010 106.41269 0 ft 486 kts 277°
2026-04-24 12:27 41.37425 106.36809 0 ft 486 kts 277°
2026-04-24 12:27 41.37838 106.32349 0 ft 486 kts 277°
2026-04-24 12:27 41.38244 106.27936 0 ft 486 kts 277°
2026-04-24 12:28 41.38659 106.23418 0 ft 486 kts 277°
2026-04-24 12:28 41.39062 106.19004 0 ft 486 kts 277°
2026-04-24 12:28 41.39473 106.14492 0 ft 486 kts 277°
2026-04-24 12:28 41.39873 106.10077 0 ft 486 kts 277°
2026-04-24 12:29 41.40277 106.05592 0 ft 486 kts 277°
2026-04-24 12:29 41.40678 106.01133 0 ft 486 kts 277°
2026-04-24 12:29 41.41077 105.96666 0 ft 486 kts 277°
2026-04-24 12:29 41.41475 105.92196 0 ft 486 kts 276°
2026-04-24 12:30 41.41870 105.87727 0 ft 486 kts 277°
2026-04-24 12:30 41.42265 105.83255 0 ft 486 kts 276°
2026-04-24 12:30 41.42657 105.78786 0 ft 486 kts 276°
2026-04-24 12:30 41.43048 105.74309 0 ft 486 kts 276°
2026-04-24 12:31 41.43307 105.71340 0 ft 486 kts 276°
2026-04-24 12:31 41.43694 105.66880 0 ft 486 kts 276°
2026-04-24 12:31 41.44080 105.62411 0 ft 486 kts 276°
2026-04-24 12:31 41.44579 105.56601 0 ft 486 kts 276°
2026-04-24 12:32 41.44837 105.53575 0 ft 486 kts 276°
2026-04-24 12:32 41.45215 105.49141 0 ft 486 kts 276°
2026-04-24 12:32 41.45596 105.44648 0 ft 486 kts 276°
2026-04-24 12:32 41.45974 105.40168 0 ft 486 kts 276°
2026-04-24 12:33 41.46349 105.35700 0 ft 486 kts 276°
2026-04-24 12:33 41.46724 105.31210 0 ft 486 kts 276°
2026-04-24 12:33 41.47096 105.26733 0 ft 486 kts 276°
2026-04-24 12:33 41.47467 105.22260 0 ft 486 kts 276°
2026-04-24 12:34 41.47835 105.17787 0 ft 486 kts 276°
2026-04-24 12:34 41.48203 105.13303 0 ft 486 kts 276°
2026-04-24 12:34 41.48564 105.08880 0 ft 486 kts 276°
2026-04-24 12:34 41.48928 105.04390 0 ft 486 kts 276°
2026-04-24 12:35 41.49289 104.99917 0 ft 486 kts 276°
2026-04-24 12:35 41.49649 104.95439 0 ft 486 kts 276°
2026-04-24 12:35 41.50007 104.90967 0 ft 486 kts 276°
2026-04-24 12:35 41.50364 104.86481 0 ft 486 kts 276°
2026-04-24 12:36 41.50720 104.81993 0 ft 486 kts 276°
2026-04-24 12:36 41.51073 104.77510 0 ft 486 kts 276°
2026-04-24 12:36 41.51424 104.73031 0 ft 486 kts 276°
2026-04-24 12:36 41.51774 104.68547 0 ft 486 kts 276°
2026-04-24 12:37 41.52122 104.64060 0 ft 486 kts 276°
2026-04-24 12:37 41.52469 104.59572 0 ft 486 kts 276°
2026-04-24 12:37 41.52809 104.55145 0 ft 486 kts 276°
2026-04-24 12:37 41.53152 104.50657 0 ft 486 kts 276°
2026-04-24 12:38 41.53493 104.46176 0 ft 486 kts 276°
2026-04-24 12:38 41.53832 104.41687 0 ft 486 kts 276°
2026-04-24 12:38 41.54169 104.37204 0 ft 486 kts 276°
2026-04-24 12:39 41.55173 104.23727 0 ft 486 kts 275°
2026-04-24 12:39 41.55504 104.19227 0 ft 486 kts 275°
2026-04-24 12:39 41.55832 104.14742 0 ft 486 kts 275°
2026-04-24 12:40 41.56160 104.10242 0 ft 486 kts 275°
2026-04-24 12:40 41.56481 104.05811 0 ft 486 kts 275°
2026-04-24 12:40 41.56804 104.01330 0 ft 486 kts 275°
2026-04-24 12:40 41.57127 103.96828 0 ft 486 kts 275°
2026-04-24 12:41 41.57447 103.92341 0 ft 486 kts 275°
2026-04-24 12:41 41.57765 103.87851 0 ft 486 kts 275°
2026-04-24 12:41 41.58081 103.83367 0 ft 486 kts 275°
2026-04-24 12:41 41.58397 103.78858 0 ft 486 kts 275°
2026-04-24 12:42 41.58709 103.74381 0 ft 486 kts 275°
2026-04-24 12:42 41.59022 103.69869 0 ft 486 kts 275°
2026-04-24 12:42 41.59332 103.65372 0 ft 486 kts 275°
2026-04-24 12:42 41.59639 103.60888 0 ft 486 kts 275°
2026-04-24 12:43 41.59945 103.56386 0 ft 486 kts 275°
2026-04-24 12:43 41.60250 103.51884 0 ft 486 kts 275°
2026-04-24 12:43 41.60553 103.47393 0 ft 486 kts 275°
2026-04-24 12:43 41.60854 103.42895 0 ft 486 kts 275°
2026-04-24 12:44 41.61152 103.38404 0 ft 486 kts 275°
2026-04-24 12:44 41.61450 103.33908 0 ft 486 kts 275°
2026-04-24 12:44 41.61745 103.29413 0 ft 486 kts 275°
2026-04-24 12:44 41.62039 103.24913 0 ft 486 kts 275°
2026-04-24 12:45 41.62328 103.20458 0 ft 486 kts 275°
2026-04-24 12:45 41.62618 103.15971 0 ft 486 kts 275°
2026-04-24 12:45 41.62906 103.11476 0 ft 486 kts 275°
2026-04-24 12:45 41.63194 103.06965 0 ft 486 kts 275°
2026-04-24 12:46 41.63478 103.02477 0 ft 486 kts 275°
2026-04-24 12:46 41.63762 102.97978 0 ft 486 kts 275°
2026-04-24 12:46 41.64044 102.93466 0 ft 486 kts 275°
2026-04-24 12:46 41.64325 102.88947 0 ft 486 kts 275°
2026-04-24 12:47 41.64603 102.84449 0 ft 486 kts 275°
2026-04-24 12:47 41.64877 102.79992 0 ft 486 kts 275°
2026-04-24 12:47 41.65151 102.75488 0 ft 486 kts 275°
2026-04-24 12:47 41.65424 102.70987 0 ft 486 kts 274°
2026-04-24 12:48 41.65695 102.66485 0 ft 486 kts 275°
2026-04-24 12:48 41.65965 102.61966 0 ft 486 kts 274°
2026-04-24 12:48 41.66234 102.57450 0 ft 486 kts 275°
2026-04-24 12:48 41.66496 102.53009 0 ft 486 kts 274°
2026-04-24 12:49 41.66760 102.48492 0 ft 486 kts 274°
2026-04-24 12:49 41.67023 102.43992 0 ft 486 kts 274°
2026-04-24 12:49 41.67284 102.39465 0 ft 486 kts 274°
2026-04-24 12:49 41.67544 102.34951 0 ft 486 kts 274°
2026-04-24 12:50 41.67800 102.30450 0 ft 486 kts 274°
2026-04-24 12:50 41.68056 102.25940 0 ft 486 kts 274°
2026-04-24 12:50 41.68306 102.21494 0 ft 486 kts 274°
2026-04-24 12:50 41.68558 102.16983 0 ft 486 kts 274°
2026-04-24 12:51 41.68808 102.12477 0 ft 486 kts 274°
2026-04-24 12:51 41.69056 102.07978 0 ft 486 kts 274°
2026-04-24 12:51 41.69303 102.03447 0 ft 486 kts 274°
2026-04-24 12:51 41.69548 101.98945 0 ft 486 kts 274°
2026-04-24 12:52 41.69791 101.94431 0 ft 486 kts 274°
2026-04-24 12:52 41.70032 101.89922 0 ft 486 kts 274°
2026-04-24 12:52 41.70272 101.85406 0 ft 486 kts 274°
2026-04-24 12:52 41.70510 101.80900 0 ft 486 kts 274°
2026-04-24 12:53 41.70743 101.76441 0 ft 486 kts 274°
2026-04-24 12:53 41.70978 101.71919 0 ft 486 kts 274°
2026-04-24 12:53 41.71209 101.67421 0 ft 486 kts 274°
2026-04-24 12:53 41.71441 101.62883 0 ft 486 kts 274°
2026-04-24 12:54 41.71670 101.58376 0 ft 486 kts 274°
2026-04-24 12:54 41.71897 101.53868 0 ft 486 kts 274°
2026-04-24 12:54 41.72122 101.49345 0 ft 486 kts 274°
2026-04-24 12:54 41.72343 101.44891 0 ft 486 kts 274°
2026-04-24 12:55 41.72565 101.40382 0 ft 486 kts 274°
2026-04-24 12:55 41.72785 101.35865 0 ft 486 kts 274°
2026-04-24 12:55 41.73003 101.31357 0 ft 486 kts 274°
2026-04-24 12:55 41.73219 101.26844 0 ft 486 kts 274°
2026-04-24 12:56 41.73434 101.22328 0 ft 486 kts 274°
2026-04-24 12:56 41.73647 101.17813 0 ft 486 kts 274°
2026-04-24 12:56 41.73859 101.13295 0 ft 486 kts 274°
2026-04-24 12:56 41.74069 101.08769 0 ft 486 kts 274°
2026-04-24 12:57 41.74276 101.04255 0 ft 486 kts 273°
2026-04-24 12:57 41.74482 100.99744 0 ft 486 kts 273°
2026-04-24 12:57 41.74686 100.95229 0 ft 486 kts 273°
2026-04-24 12:57 41.74889 100.90708 0 ft 486 kts 273°
2026-04-24 12:58 41.75087 100.86251 0 ft 486 kts 273°
2026-04-24 12:58 41.75286 100.81717 0 ft 486 kts 273°
2026-04-24 12:58 41.75483 100.77198 0 ft 486 kts 273°
2026-04-24 12:58 41.75679 100.72680 0 ft 486 kts 273°
2026-04-24 12:59 41.75872 100.68166 0 ft 486 kts 273°
2026-04-24 12:59 41.76064 100.63642 0 ft 486 kts 273°
2026-04-24 12:59 41.76254 100.59128 0 ft 486 kts 273°
2026-04-24 12:59 41.76442 100.54614 0 ft 486 kts 273°
2026-04-24 13:00 41.76629 100.50097 0 ft 486 kts 273°
2026-04-24 13:00 41.76811 100.45626 0 ft 486 kts 273°
2026-04-24 13:00 41.76994 100.41113 0 ft 486 kts 273°
2026-04-24 13:00 41.77175 100.36580 0 ft 486 kts 273°
2026-04-24 13:01 41.77355 100.32061 0 ft 486 kts 273°
2026-04-24 13:01 41.77533 100.27539 0 ft 486 kts 273°
2026-04-24 13:01 41.77708 100.23032 0 ft 486 kts 273°
2026-04-24 13:01 41.77882 100.18504 0 ft 486 kts 273°
2026-04-24 13:02 41.78054 100.13988 0 ft 486 kts 273°
2026-04-24 13:02 41.78225 100.09461 0 ft 486 kts 273°
2026-04-24 13:02 41.78395 100.04929 0 ft 486 kts 272°
2026-04-24 13:02 41.78561 100.00417 0 ft 486 kts 273°
2026-04-24 13:03 41.78726 99.95895 0 ft 486 kts 272°
2026-04-24 13:03 41.78890 99.91372 0 ft 486 kts 272°
2026-04-24 13:03 41.79051 99.86861 0 ft 486 kts 272°
2026-04-24 13:03 41.79211 99.82334 0 ft 486 kts 272°
2026-04-24 13:04 41.79369 99.77809 0 ft 486 kts 272°
2026-04-24 13:04 41.79524 99.73340 0 ft 486 kts 272°
2026-04-24 13:04 41.79679 99.68803 0 ft 486 kts 272°
2026-04-24 13:04 41.79832 99.64280 0 ft 486 kts 272°
2026-04-24 13:05 41.79982 99.59768 0 ft 486 kts 272°
2026-04-24 13:05 41.80131 99.55251 0 ft 486 kts 272°
2026-04-24 13:05 41.80280 99.50705 0 ft 486 kts 272°
2026-04-24 13:05 41.80425 99.46186 0 ft 486 kts 272°
2026-04-24 13:06 41.80570 99.41656 0 ft 486 kts 272°
2026-04-24 13:06 41.80711 99.37138 0 ft 486 kts 272°
2026-04-24 13:06 41.80850 99.32656 0 ft 486 kts 272°
2026-04-24 13:06 41.80989 99.28130 0 ft 486 kts 272°
2026-04-24 13:07 41.81126 99.23610 0 ft 486 kts 272°
2026-04-24 13:07 41.81261 99.19073 0 ft 486 kts 272°
2026-04-24 13:07 41.81395 99.14543 0 ft 486 kts 272°
2026-04-24 13:07 41.81526 99.10021 0 ft 486 kts 272°
2026-04-24 13:08 41.81656 99.05500 0 ft 486 kts 272°
2026-04-24 13:08 41.81784 99.00971 0 ft 486 kts 272°
2026-04-24 13:08 41.81910 98.96446 0 ft 486 kts 272°
2026-04-24 13:09 41.82156 98.87443 0 ft 486 kts 272°
2026-04-24 13:09 41.82277 98.82913 0 ft 486 kts 272°
2026-04-24 13:09 41.82396 98.78391 0 ft 486 kts 272°
2026-04-24 13:09 41.82513 98.73865 0 ft 486 kts 272°
2026-04-24 13:10 41.82628 98.69335 0 ft 486 kts 272°
2026-04-24 13:10 41.82742 98.64813 0 ft 486 kts 272°
2026-04-24 13:10 41.82854 98.60288 0 ft 486 kts 272°
2026-04-24 13:10 41.82965 98.55741 0 ft 486 kts 272°
2026-04-24 13:11 41.83073 98.51207 0 ft 486 kts 272°
2026-04-24 13:11 41.83180 98.46691 0 ft 486 kts 271°
2026-04-24 13:11 41.83285 98.42162 0 ft 486 kts 272°
2026-04-24 13:11 41.83388 98.37636 0 ft 486 kts 271°
2026-04-24 13:12 41.83489 98.33098 0 ft 486 kts 271°
2026-04-24 13:12 41.83588 98.28628 0 ft 486 kts 271°
2026-04-24 13:12 41.83686 98.24078 0 ft 486 kts 271°
2026-04-24 13:12 41.83782 98.19551 0 ft 486 kts 271°
2026-04-24 13:13 41.83876 98.15018 0 ft 486 kts 271°
2026-04-24 13:13 41.83969 98.10482 0 ft 486 kts 271°
2026-04-24 13:13 41.84059 98.05965 0 ft 486 kts 271°
2026-04-24 13:13 41.84148 98.01433 0 ft 486 kts 271°
2026-04-24 13:14 41.84235 97.96899 0 ft 486 kts 271°
2026-04-24 13:14 41.84321 97.92366 0 ft 486 kts 271°
2026-04-24 13:14 41.84404 97.87841 0 ft 486 kts 271°
2026-04-24 13:14 41.84486 97.83316 0 ft 486 kts 271°
2026-04-24 13:15 41.84566 97.78782 0 ft 486 kts 271°
2026-04-24 13:15 41.84643 97.74299 0 ft 486 kts 271°
2026-04-24 13:15 41.84719 97.69779 0 ft 486 kts 271°
2026-04-24 13:15 41.84794 97.65238 0 ft 486 kts 271°
2026-04-24 13:16 41.84867 97.60698 0 ft 486 kts 271°
2026-04-24 13:16 41.84938 97.56175 0 ft 486 kts 271°
2026-04-24 13:16 41.85008 97.51643 0 ft 486 kts 271°
2026-04-24 13:16 41.85075 97.47110 0 ft 486 kts 271°
2026-04-24 13:17 41.85141 97.42589 0 ft 486 kts 271°
2026-04-24 13:17 41.85205 97.38055 0 ft 486 kts 271°
2026-04-24 13:17 41.85267 97.33527 0 ft 486 kts 271°
2026-04-24 13:17 41.85327 97.28995 0 ft 486 kts 271°
2026-04-24 13:18 41.85386 97.24467 0 ft 486 kts 271°
2026-04-24 13:18 41.85443 97.19936 0 ft 486 kts 271°
2026-04-24 13:18 41.85497 97.15460 0 ft 486 kts 271°
2026-04-24 13:18 41.85550 97.10933 0 ft 486 kts 271°
2026-04-24 13:19 41.85602 97.06380 0 ft 486 kts 271°
2026-04-24 13:19 41.85652 97.01844 0 ft 486 kts 271°
2026-04-24 13:19 41.85700 96.97313 0 ft 486 kts 271°
2026-04-24 13:19 41.85746 96.92824 0 ft 486 kts 270°
2026-04-24 13:20 41.85790 96.88298 0 ft 486 kts 271°
2026-04-24 13:20 41.85833 96.83755 0 ft 486 kts 270°
2026-04-24 13:20 41.85873 96.79225 0 ft 486 kts 271°
2026-04-24 13:20 41.85912 96.74696 0 ft 486 kts 270°
2026-04-24 13:21 41.85950 96.70155 0 ft 486 kts 270°
2026-04-24 13:21 41.85973 96.67152 0 ft 486 kts 270°
2026-04-24 13:21 41.86008 96.62614 0 ft 486 kts 270°
2026-04-24 13:21 41.86040 96.58087 0 ft 486 kts 270°
2026-04-24 13:22 41.86081 96.52075 0 ft 486 kts 270°
2026-04-24 13:22 41.86109 96.47547 0 ft 486 kts 270°
2026-04-24 13:22 41.86127 96.44473 0 ft 486 kts 270°
2026-04-24 13:22 41.86152 96.39993 0 ft 486 kts 270°
2026-04-24 13:23 41.86176 96.35445 0 ft 486 kts 270°
2026-04-24 13:23 41.86198 96.30917 0 ft 486 kts 270°
2026-04-24 13:23 41.86217 96.26380 0 ft 486 kts 270°
2026-04-24 13:23 41.86236 96.21848 0 ft 486 kts 270°
2026-04-24 13:24 41.86252 96.17323 0 ft 486 kts 270°
2026-04-24 13:24 41.86267 96.12782 0 ft 486 kts 270°
2026-04-24 13:24 41.86280 96.08245 0 ft 486 kts 270°
2026-04-24 13:24 41.86291 96.03709 0 ft 486 kts 270°
2026-04-24 13:25 41.86300 95.99172 0 ft 486 kts 270°
2026-04-24 13:25 41.86307 95.94646 0 ft 486 kts 270°
2026-04-24 13:25 41.86313 95.90173 0 ft 486 kts 270°
2026-04-24 13:25 41.86317 95.85641 0 ft 486 kts 270°
2026-04-24 13:26 41.86319 95.81106 0 ft 486 kts 270°
2026-04-24 13:26 41.86319 95.76566 0 ft 486 kts 270°
2026-04-24 13:26 41.86318 95.72038 0 ft 486 kts 270°
2026-04-24 13:26 41.86315 95.67509 0 ft 486 kts 270°
2026-04-24 13:27 41.86310 95.62978 0 ft 486 kts 270°
2026-04-24 13:27 41.86303 95.58440 0 ft 486 kts 270°
2026-04-24 13:27 41.86294 95.53917 0 ft 486 kts 270°
2026-04-24 13:27 41.86284 95.49374 0 ft 486 kts 270°
2026-04-24 13:28 41.86271 95.44837 0 ft 486 kts 270°
2026-04-24 13:28 41.86257 95.40310 0 ft 486 kts 270°
2026-04-24 13:28 41.86241 95.35827 0 ft 486 kts 270°
2026-04-24 13:28 41.86223 95.31302 0 ft 486 kts 269°
2026-04-24 13:29 41.86203 95.26767 0 ft 486 kts 270°
2026-04-24 13:29 41.86367 95.22241 0 ft 485 kts 278°
2026-04-24 13:29 41.86965 95.17781 0 ft 486 kts 282°
2026-04-24 13:29 41.87685 95.13351 0 ft 486 kts 283°
2026-04-24 13:30 41.88448 95.08937 0 ft 486 kts 283°
2026-04-24 13:30 41.89234 95.04528 0 ft 486 kts 283°
2026-04-24 13:30 41.90032 95.00120 0 ft 486 kts 283°
2026-04-24 13:30 41.90835 94.95717 0 ft 486 kts 284°
2026-04-24 13:31 41.91642 94.91310 0 ft 486 kts 283°
2026-04-24 13:31 41.92450 94.86902 0 ft 486 kts 284°
2026-04-24 13:31 41.93246 94.82558 0 ft 486 kts 283°
2026-04-24 13:31 41.94055 94.78139 0 ft 486 kts 284°
2026-04-24 13:32 41.94864 94.73715 0 ft 486 kts 283°
2026-04-24 13:32 41.95667 94.69320 0 ft 486 kts 284°
2026-04-24 13:32 41.96470 94.64914 0 ft 486 kts 283°
2026-04-24 13:32 41.97272 94.60505 0 ft 486 kts 283°
2026-04-24 13:33 41.98075 94.56080 0 ft 486 kts 283°
2026-04-24 13:33 41.98874 94.51674 0 ft 486 kts 283°
2026-04-24 13:33 41.99674 94.47248 0 ft 486 kts 283°
2026-04-24 13:33 42.00471 94.42831 0 ft 486 kts 283°
2026-04-24 13:34 42.01265 94.38422 0 ft 486 kts 283°
2026-04-24 13:34 42.02057 94.34013 0 ft 486 kts 283°
2026-04-24 13:34 42.02851 94.29582 0 ft 486 kts 283°
2026-04-24 13:34 42.03641 94.25167 0 ft 486 kts 283°
2026-04-24 13:35 42.04420 94.20804 0 ft 486 kts 283°
2026-04-24 13:35 42.05216 94.16337 0 ft 486 kts 283°
2026-04-24 13:35 42.06005 94.11896 0 ft 486 kts 283°
2026-04-24 13:35 42.06777 94.07539 0 ft 486 kts 283°
2026-04-24 13:36 42.07561 94.03105 0 ft 486 kts 283°
2026-04-24 13:36 42.08343 93.98673 0 ft 486 kts 283°
2026-04-24 13:36 42.09122 93.94250 0 ft 486 kts 283°
2026-04-24 13:36 42.09900 93.89818 0 ft 486 kts 283°
2026-04-24 13:37 42.10673 93.85403 0 ft 486 kts 283°
2026-04-24 13:37 42.11447 93.80976 0 ft 486 kts 283°
2026-04-24 13:37 42.12221 93.76534 0 ft 486 kts 283°
2026-04-24 13:37 42.12993 93.72099 0 ft 486 kts 283°
2026-04-24 13:38 42.13760 93.67676 0 ft 486 kts 283°
2026-04-24 13:38 42.14527 93.63247 0 ft 486 kts 283°
2026-04-24 13:38 42.15294 93.58804 0 ft 486 kts 283°
2026-04-24 13:38 42.16060 93.54356 0 ft 486 kts 283°
2026-04-24 13:39 42.16813 93.49976 0 ft 486 kts 283°
2026-04-24 13:39 42.17573 93.45541 0 ft 486 kts 283°
2026-04-24 13:39 42.18331 93.41108 0 ft 486 kts 283°
2026-04-24 13:39 42.19090 93.36657 0 ft 486 kts 283°
2026-04-24 13:40 42.19846 93.32216 0 ft 486 kts 283°
2026-04-24 13:40 42.20600 93.27772 0 ft 486 kts 283°
2026-04-24 13:40 42.21353 93.23321 0 ft 486 kts 283°
2026-04-24 13:40 42.22103 93.18884 0 ft 486 kts 283°
2026-04-24 13:41 42.22851 93.14441 0 ft 486 kts 283°
2026-04-24 13:41 42.23599 93.09987 0 ft 486 kts 283°
2026-04-24 13:41 42.24345 93.05535 0 ft 486 kts 283°
2026-04-24 13:41 42.25088 93.01095 0 ft 486 kts 282°
2026-04-24 13:42 42.25829 92.96650 0 ft 486 kts 283°
2026-04-24 13:42 42.26570 92.92195 0 ft 486 kts 282°
2026-04-24 13:42 42.27307 92.87749 0 ft 486 kts 282°
2026-04-24 13:42 42.28032 92.83372 0 ft 486 kts 282°
2026-04-24 13:43 42.28766 92.78924 0 ft 486 kts 282°
2026-04-24 13:43 42.29499 92.74472 0 ft 486 kts 282°
2026-04-24 13:43 42.30230 92.70022 0 ft 486 kts 282°
2026-04-24 13:43 42.30961 92.65556 0 ft 486 kts 282°
2026-04-24 13:44 42.31690 92.61094 0 ft 486 kts 282°
2026-04-24 13:44 42.32416 92.56639 0 ft 486 kts 282°
2026-04-24 13:44 42.33141 92.52176 0 ft 486 kts 282°
2026-04-24 13:44 42.33864 92.47719 0 ft 486 kts 282°
2026-04-24 13:45 42.34586 92.43249 0 ft 486 kts 282°
2026-04-24 13:45 42.35305 92.38790 0 ft 486 kts 282°
2026-04-24 13:45 42.36022 92.34333 0 ft 486 kts 282°
2026-04-24 13:45 42.36739 92.29867 0 ft 486 kts 282°
2026-04-24 13:46 42.37455 92.25391 0 ft 486 kts 282°
2026-04-24 13:46 42.38168 92.20922 0 ft 486 kts 282°
2026-04-24 13:46 42.38878 92.16461 0 ft 486 kts 282°
2026-04-24 13:46 42.39586 92.11995 0 ft 486 kts 282°
2026-04-24 13:47 42.40296 92.07510 0 ft 486 kts 282°
2026-04-24 13:47 42.40993 92.03099 0 ft 486 kts 282°
2026-04-24 13:47 42.41706 91.98569 0 ft 486 kts 282°
2026-04-24 13:47 42.42399 91.94156 0 ft 486 kts 282°
2026-04-24 13:48 42.43101 91.89675 0 ft 486 kts 282°
2026-04-24 13:48 42.43800 91.85193 0 ft 486 kts 282°
2026-04-24 13:48 42.44498 91.80714 0 ft 486 kts 282°
2026-04-24 13:48 42.45195 91.76231 0 ft 486 kts 282°
2026-04-24 13:49 42.45889 91.71751 0 ft 486 kts 282°
2026-04-24 13:49 42.46579 91.67279 0 ft 486 kts 282°
2026-04-24 13:49 42.47264 91.62836 0 ft 486 kts 282°
2026-04-24 13:49 42.47951 91.58367 0 ft 486 kts 282°
2026-04-24 13:50 42.48637 91.53885 0 ft 486 kts 282°
2026-04-24 13:50 42.49324 91.49392 0 ft 486 kts 281°
2026-04-24 13:50 42.50006 91.44916 0 ft 486 kts 282°
2026-04-24 13:50 42.50688 91.40432 0 ft 486 kts 281°
2026-04-24 13:51 42.51367 91.35947 0 ft 486 kts 281°
2026-04-24 13:51 42.52045 91.31460 0 ft 486 kts 281°
2026-04-24 13:51 42.52722 91.26970 0 ft 486 kts 281°
2026-04-24 13:51 42.53397 91.22476 0 ft 486 kts 281°
2026-04-24 13:52 42.54071 91.17978 0 ft 486 kts 281°
2026-04-24 13:52 42.54744 91.13476 0 ft 486 kts 281°
2026-04-24 13:52 42.55404 91.09049 0 ft 486 kts 281°
2026-04-24 13:52 42.56070 91.04562 0 ft 486 kts 281°
2026-04-24 13:53 42.56736 91.00070 0 ft 486 kts 281°
2026-04-24 13:53 42.57400 90.95577 0 ft 486 kts 281°
2026-04-24 13:53 42.58063 90.91073 0 ft 486 kts 281°
2026-04-24 13:53 42.58723 90.86583 0 ft 486 kts 281°
2026-04-24 13:54 42.59383 90.82079 0 ft 486 kts 281°
2026-04-24 13:54 42.60040 90.77577 0 ft 486 kts 281°
2026-04-24 13:54 42.60695 90.73082 0 ft 486 kts 281°
2026-04-24 13:54 42.61347 90.68590 0 ft 486 kts 281°
2026-04-24 13:55 42.62000 90.64082 0 ft 486 kts 281°
2026-04-24 13:55 42.62651 90.59571 0 ft 486 kts 281°
2026-04-24 13:55 42.63300 90.55067 0 ft 486 kts 281°
2026-04-24 13:55 42.63936 90.50636 0 ft 486 kts 281°
2026-04-24 13:56 42.64580 90.46134 0 ft 486 kts 281°
2026-04-24 13:56 42.65224 90.41624 0 ft 486 kts 281°
2026-04-24 13:56 42.65866 90.37107 0 ft 486 kts 281°
2026-04-24 13:56 42.66505 90.32601 0 ft 486 kts 281°
2026-04-24 13:57 42.67144 90.28088 0 ft 486 kts 281°
2026-04-24 13:57 42.67780 90.23576 0 ft 486 kts 281°
2026-04-24 13:57 42.68413 90.19072 0 ft 486 kts 281°
2026-04-24 13:57 42.69047 90.14550 0 ft 486 kts 281°
2026-04-24 13:58 42.69678 90.10033 0 ft 486 kts 281°
2026-04-24 13:58 42.70307 90.05517 0 ft 486 kts 281°
2026-04-24 13:58 42.70936 90.00993 0 ft 486 kts 281°
2026-04-24 13:58 42.71560 89.96484 0 ft 486 kts 280°
2026-04-24 13:59 42.72184 89.91969 0 ft 486 kts 281°
2026-04-24 13:59 42.72806 89.87450 0 ft 486 kts 280°
2026-04-24 13:59 42.73417 89.82998 0 ft 486 kts 280°
2026-04-24 13:59 42.74036 89.78475 0 ft 486 kts 280°
2026-04-24 14:00 42.74651 89.73961 0 ft 486 kts 280°
2026-04-24 14:00 42.75267 89.69435 0 ft 486 kts 280°
2026-04-24 14:00 42.75879 89.64915 0 ft 486 kts 280°
2026-04-24 14:00 42.76491 89.60392 0 ft 486 kts 280°
2026-04-24 14:01 42.77099 89.55874 0 ft 486 kts 280°
2026-04-24 14:01 42.77709 89.51338 0 ft 486 kts 280°
2026-04-24 14:01 42.78315 89.46809 0 ft 486 kts 280°
2026-04-24 14:01 42.78919 89.42279 0 ft 486 kts 280°
2026-04-24 14:02 42.79516 89.37798 0 ft 486 kts 280°
2026-04-24 14:02 42.80117 89.33264 0 ft 486 kts 280°
2026-04-24 14:02 42.80714 89.28747 0 ft 486 kts 280°
2026-04-24 14:02 42.81310 89.24222 0 ft 486 kts 280°
2026-04-24 14:03 42.81907 89.19682 0 ft 486 kts 280°
2026-04-24 14:03 42.82500 89.15153 0 ft 486 kts 280°
2026-04-24 14:03 42.83091 89.10627 0 ft 486 kts 280°
2026-04-24 14:03 42.83681 89.06092 0 ft 486 kts 280°
2026-04-24 14:04 42.84267 89.01567 0 ft 486 kts 280°
2026-04-24 14:04 42.84853 88.97033 0 ft 486 kts 280°
2026-04-24 14:04 42.85440 88.92485 0 ft 486 kts 280°
2026-04-24 14:04 42.86022 88.87952 0 ft 486 kts 280°
2026-04-24 14:05 42.86603 88.83414 0 ft 486 kts 279°
2026-04-24 14:05 42.87184 88.78861 0 ft 486 kts 280°
2026-04-24 14:05 42.87753 88.74379 0 ft 486 kts 279°
2026-04-24 14:05 42.88330 88.69832 0 ft 486 kts 279°
2026-04-24 14:06 42.88902 88.65301 0 ft 486 kts 279°
2026-04-24 14:06 42.89475 88.60750 0 ft 486 kts 279°
2026-04-24 14:06 42.90045 88.56211 0 ft 486 kts 279°
2026-04-24 14:06 42.90615 88.51656 0 ft 486 kts 279°
2026-04-24 14:07 42.91182 88.47108 0 ft 486 kts 279°
2026-04-24 14:07 42.91746 88.42564 0 ft 486 kts 279°
2026-04-24 14:07 42.92303 88.38067 0 ft 486 kts 279°
2026-04-24 14:07 42.92865 88.33515 0 ft 486 kts 279°
2026-04-24 14:08 42.93424 88.28973 0 ft 486 kts 279°
2026-04-24 14:08 42.93980 88.24433 0 ft 486 kts 279°
2026-04-24 14:08 42.94538 88.19868 0 ft 486 kts 279°
2026-04-24 14:08 42.95092 88.15315 0 ft 486 kts 279°
2026-04-24 14:09 42.95644 88.10765 0 ft 486 kts 279°
2026-04-24 14:09 42.96193 88.06222 0 ft 486 kts 279°
2026-04-24 14:09 42.96559 88.03190 0 ft 486 kts 279°
2026-04-24 14:09 42.97284 87.97153 0 ft 486 kts 279°
2026-04-24 14:10 42.97652 87.94084 0 ft 486 kts 279°
2026-04-24 14:10 42.98196 87.89524 0 ft 486 kts 279°
2026-04-24 14:10 42.98738 87.84965 0 ft 486 kts 279°
2026-04-24 14:10 42.99277 87.80422 0 ft 486 kts 279°
2026-04-24 14:11 42.99811 87.75898 0 ft 486 kts 279°
2026-04-24 14:11 43.00349 87.71332 0 ft 486 kts 279°
2026-04-24 14:11 43.01416 87.62221 0 ft 486 kts 279°
2026-04-24 14:12 43.01947 87.57654 0 ft 486 kts 279°
2026-04-24 14:12 43.02477 87.53091 0 ft 486 kts 279°
2026-04-24 14:12 43.03003 87.48541 0 ft 486 kts 279°
2026-04-24 14:12 43.03528 87.43981 0 ft 486 kts 279°
2026-04-24 14:13 43.04053 87.39413 0 ft 486 kts 279°
2026-04-24 14:13 43.04576 87.34836 0 ft 486 kts 279°
2026-04-24 14:13 43.05088 87.30345 0 ft 486 kts 278°
2026-04-24 14:13 43.05607 87.25770 0 ft 486 kts 278°
2026-04-24 14:14 43.06123 87.21211 0 ft 486 kts 279°
2026-04-24 14:14 43.06638 87.16642 0 ft 486 kts 278°
2026-04-24 14:14 43.07663 87.07500 0 ft 486 kts 278°
2026-04-24 14:15 43.08172 87.02930 0 ft 486 kts 278°
2026-04-24 14:15 43.08680 86.98359 0 ft 486 kts 278°
2026-04-24 14:15 43.09181 86.93827 0 ft 486 kts 278°
2026-04-24 14:15 43.09685 86.89257 0 ft 486 kts 278°
2026-04-24 14:16 43.10187 86.84686 0 ft 486 kts 278°
2026-04-24 14:16 43.10688 86.80104 0 ft 486 kts 278°
2026-04-24 14:16 43.11186 86.75532 0 ft 486 kts 278°
2026-04-24 14:17 43.12176 86.66390 0 ft 486 kts 278°
2026-04-24 14:17 43.12670 86.61805 0 ft 486 kts 278°
2026-04-24 14:17 43.13646 86.52694 0 ft 486 kts 278°
2026-04-24 14:18 43.14132 86.48125 0 ft 486 kts 278°
2026-04-24 14:18 43.14620 86.43528 0 ft 486 kts 278°
2026-04-24 14:18 43.15105 86.38938 0 ft 486 kts 278°
2026-04-24 14:18 43.15587 86.34358 0 ft 486 kts 278°
2026-04-24 14:19 43.16067 86.29778 0 ft 486 kts 278°
2026-04-24 14:19 43.16544 86.25203 0 ft 486 kts 278°
2026-04-24 14:19 43.17023 86.20606 0 ft 486 kts 278°
2026-04-24 14:19 43.17492 86.16075 0 ft 486 kts 278°
2026-04-24 14:20 43.17970 86.11440 0 ft 486 kts 278°
2026-04-24 14:20 43.18437 86.06897 0 ft 486 kts 278°
2026-04-24 14:20 43.18905 86.02321 0 ft 486 kts 278°
2026-04-24 14:20 43.19373 85.97732 0 ft 486 kts 278°
2026-04-24 14:21 43.19837 85.93151 0 ft 486 kts 278°
2026-04-24 14:21 43.20301 85.88562 0 ft 486 kts 278°
2026-04-24 14:21 43.20764 85.83964 0 ft 486 kts 278°
2026-04-24 14:21 43.21223 85.79379 0 ft 486 kts 278°
2026-04-24 14:22 43.21682 85.74787 0 ft 486 kts 278°
2026-04-24 14:22 43.22138 85.70201 0 ft 486 kts 277°
2026-04-24 14:22 43.23045 85.61019 0 ft 486 kts 277°
2026-04-24 14:23 43.23490 85.56485 0 ft 486 kts 277°
2026-04-24 14:23 43.23938 85.51896 0 ft 486 kts 277°
2026-04-24 14:23 43.24385 85.47299 0 ft 486 kts 277°
2026-04-24 14:23 43.24830 85.42711 0 ft 486 kts 277°
2026-04-24 14:24 43.25274 85.38119 0 ft 486 kts 277°
2026-04-24 14:24 43.25716 85.33517 0 ft 486 kts 277°
2026-04-24 14:24 43.26155 85.28926 0 ft 486 kts 277°
2026-04-24 14:24 43.26593 85.24328 0 ft 486 kts 277°
2026-04-24 14:25 43.27030 85.19719 0 ft 486 kts 277°
2026-04-24 14:25 43.27465 85.15121 0 ft 486 kts 277°
2026-04-24 14:25 43.27897 85.10527 0 ft 486 kts 277°
2026-04-24 14:25 43.28328 85.05911 0 ft 486 kts 277°
2026-04-24 14:26 43.28751 85.01371 0 ft 486 kts 277°
2026-04-24 14:26 43.29179 84.96760 0 ft 486 kts 277°
2026-04-24 14:26 43.29603 84.92162 0 ft 486 kts 277°
2026-04-24 14:26 43.30027 84.87551 0 ft 486 kts 277°
2026-04-24 14:27 43.30450 84.82935 0 ft 486 kts 277°
2026-04-24 14:27 43.30868 84.78339 0 ft 486 kts 277°
2026-04-24 14:27 43.31286 84.73728 0 ft 486 kts 277°
2026-04-24 14:27 43.31700 84.69134 0 ft 486 kts 277°
2026-04-24 14:28 43.32114 84.64526 0 ft 486 kts 277°
2026-04-24 14:28 43.32525 84.59924 0 ft 486 kts 277°
2026-04-24 14:28 43.32936 84.55307 0 ft 486 kts 277°
2026-04-24 14:28 43.33342 84.50712 0 ft 486 kts 277°
2026-04-24 14:29 43.33748 84.46105 0 ft 486 kts 277°
2026-04-24 14:29 43.34149 84.41492 0 ft 486 kts 276°
2026-04-24 14:29 43.34497 84.36875 0 ft 486 kts 275°
2026-04-24 14:29 43.34803 84.32266 0 ft 486 kts 275°
2026-04-24 14:30 43.34994 84.29198 0 ft 486 kts 275°
2026-04-24 14:30 43.35363 84.23062 0 ft 486 kts 274°
2026-04-24 14:30 43.35634 84.18417 0 ft 486 kts 274°
2026-04-24 14:30 43.35900 84.13788 0 ft 486 kts 274°
2026-04-24 14:31 43.36162 84.09156 0 ft 486 kts 274°
2026-04-24 14:31 43.36421 84.04537 0 ft 486 kts 274°
2026-04-24 14:31 43.36678 83.99908 0 ft 486 kts 274°
2026-04-24 14:31 43.36934 83.95269 0 ft 486 kts 274°
2026-04-24 14:32 43.37185 83.90689 0 ft 486 kts 274°
2026-04-24 14:32 43.37437 83.86052 0 ft 486 kts 274°
2026-04-24 14:32 43.37687 83.81406 0 ft 486 kts 274°
2026-04-24 14:32 43.37935 83.76772 0 ft 486 kts 274°
2026-04-24 14:33 43.38178 83.72187 0 ft 486 kts 274°
2026-04-24 14:33 43.38421 83.67562 0 ft 486 kts 274°
2026-04-24 14:33 43.38664 83.62922 0 ft 486 kts 274°
2026-04-24 14:33 43.38904 83.58282 0 ft 486 kts 274°
2026-04-24 14:34 43.39142 83.53654 0 ft 486 kts 274°
2026-04-24 14:34 43.39379 83.49016 0 ft 486 kts 274°
2026-04-24 14:34 43.39613 83.44381 0 ft 486 kts 274°
2026-04-24 14:34 43.39846 83.39735 0 ft 486 kts 274°
2026-04-24 14:35 43.40077 83.35096 0 ft 486 kts 274°
2026-04-24 14:35 43.40303 83.30513 0 ft 486 kts 274°
2026-04-24 14:35 43.40530 83.25877 0 ft 486 kts 274°
2026-04-24 14:35 43.40755 83.21245 0 ft 486 kts 274°
2026-04-24 14:36 43.40978 83.16611 0 ft 486 kts 274°
2026-04-24 14:36 43.41199 83.11973 0 ft 486 kts 274°
2026-04-24 14:36 43.41418 83.07345 0 ft 486 kts 274°
2026-04-24 14:36 43.41636 83.02699 0 ft 486 kts 274°
2026-04-24 14:37 43.41851 82.98068 0 ft 486 kts 274°
2026-04-24 14:37 43.42066 82.93414 0 ft 486 kts 274°
2026-04-24 14:37 43.42277 82.88787 0 ft 486 kts 274°
2026-04-24 14:37 43.42487 82.84147 0 ft 486 kts 274°
2026-04-24 14:38 43.42695 82.79504 0 ft 486 kts 273°
2026-04-24 14:38 43.42902 82.74851 0 ft 486 kts 273°
2026-04-24 14:38 43.43106 82.70216 0 ft 486 kts 273°
2026-04-24 14:38 43.43307 82.65622 0 ft 486 kts 273°
2026-04-24 14:39 43.43510 82.60926 0 ft 486 kts 273°
2026-04-24 14:39 43.43706 82.56336 0 ft 486 kts 273°
2026-04-24 14:39 43.43903 82.51704 0 ft 486 kts 273°
2026-04-24 14:39 43.44098 82.47052 0 ft 486 kts 273°
2026-04-24 14:40 43.44291 82.42426 0 ft 486 kts 273°
2026-04-24 14:40 43.44483 82.37764 0 ft 486 kts 273°
2026-04-24 14:40 43.44672 82.33126 0 ft 486 kts 273°
2026-04-24 14:40 43.44860 82.28486 0 ft 486 kts 273°
2026-04-24 14:41 43.45045 82.23836 0 ft 486 kts 273°
2026-04-24 14:41 43.45229 82.19200 0 ft 486 kts 273°
2026-04-24 14:41 43.45411 82.14551 0 ft 486 kts 273°
2026-04-24 14:41 43.45590 82.09915 0 ft 486 kts 273°
2026-04-24 14:42 43.45708 82.06844 0 ft 486 kts 273°
2026-04-24 14:42 43.45943 82.00677 0 ft 486 kts 273°
2026-04-24 14:42 43.46117 81.96029 0 ft 486 kts 273°
2026-04-24 14:42 43.46290 81.91377 0 ft 486 kts 273°
2026-04-24 14:43 43.46460 81.86743 0 ft 486 kts 273°
2026-04-24 14:43 43.46629 81.82087 0 ft 486 kts 272°
2026-04-24 14:43 43.46796 81.77441 0 ft 486 kts 273°
2026-04-24 14:43 43.46961 81.72784 0 ft 486 kts 272°
2026-04-24 14:44 43.47124 81.68136 0 ft 486 kts 272°
2026-04-24 14:44 43.47283 81.63547 0 ft 486 kts 272°
2026-04-24 14:44 43.47442 81.58901 0 ft 486 kts 272°
2026-04-24 14:44 43.47600 81.54255 0 ft 486 kts 272°
2026-04-24 14:45 43.47755 81.49606 0 ft 486 kts 272°
2026-04-24 14:45 43.47909 81.44941 0 ft 486 kts 272°
2026-04-24 14:45 43.48061 81.40304 0 ft 486 kts 272°
2026-04-24 14:45 43.48211 81.35644 0 ft 486 kts 272°
2026-04-24 14:46 43.48358 81.31053 0 ft 486 kts 272°
2026-04-24 14:46 43.48504 81.26405 0 ft 486 kts 272°
2026-04-24 14:46 43.48647 81.21768 0 ft 486 kts 272°
2026-04-24 14:46 43.48789 81.17107 0 ft 486 kts 272°
2026-04-24 14:47 43.48883 81.14024 0 ft 486 kts 272°
2026-04-24 14:47 43.49068 81.07804 0 ft 486 kts 272°
2026-04-24 14:47 43.49204 81.03158 0 ft 486 kts 272°
2026-04-24 14:47 43.49338 80.98505 0 ft 486 kts 272°
2026-04-24 14:48 43.49471 80.93867 0 ft 486 kts 272°
2026-04-24 14:48 43.49601 80.89224 0 ft 486 kts 272°
2026-04-24 14:48 43.49729 80.84570 0 ft 486 kts 272°
2026-04-24 14:48 43.49855 80.79918 0 ft 486 kts 272°
2026-04-24 14:49 43.49994 80.75273 0 ft 486 kts 272°
2026-04-24 14:49 43.50156 80.70610 0 ft 486 kts 273°
2026-04-24 14:49 43.50328 80.65964 0 ft 486 kts 273°
2026-04-24 14:49 43.50501 80.61375 0 ft 486 kts 273°
2026-04-24 14:50 43.50677 80.56730 0 ft 486 kts 273°
2026-04-24 14:50 43.50853 80.52080 0 ft 486 kts 273°
2026-04-24 14:50 43.51028 80.47431 0 ft 486 kts 273°
2026-04-24 14:50 43.51201 80.42771 0 ft 486 kts 273°
2026-04-24 14:51 43.51372 80.38124 0 ft 486 kts 273°
2026-04-24 14:51 43.51541 80.33483 0 ft 486 kts 273°
2026-04-24 14:51 43.51708 80.28837 0 ft 486 kts 272°
2026-04-24 14:51 43.51873 80.24175 0 ft 486 kts 272°
2026-04-24 14:52 43.52037 80.19525 0 ft 486 kts 272°
2026-04-24 14:52 43.52197 80.14907 0 ft 486 kts 272°
2026-04-24 14:52 43.52356 80.10253 0 ft 486 kts 272°
2026-04-24 14:52 43.52514 80.05587 0 ft 486 kts 272°
2026-04-24 14:53 43.52669 80.00934 0 ft 486 kts 272°
2026-04-24 14:53 43.52822 79.96287 0 ft 486 kts 272°
2026-04-24 14:53 43.52974 79.91626 0 ft 486 kts 272°
2026-04-24 14:53 43.53122 79.87035 0 ft 486 kts 272°
2026-04-24 14:54 43.53270 79.82376 0 ft 486 kts 272°
2026-04-24 14:54 43.53415 79.77723 0 ft 486 kts 272°
2026-04-24 14:54 43.53559 79.73056 0 ft 486 kts 272°
2026-04-24 14:54 43.53701 79.68411 0 ft 486 kts 272°
2026-04-24 14:55 43.53794 79.65336 0 ft 486 kts 272°
2026-04-24 14:55 43.53980 79.59081 0 ft 488 kts 272°
2026-04-24 14:55 43.54116 79.54408 0 ft 486 kts 272°
2026-04-24 14:55 43.54250 79.49795 0 ft 479 kts 272°
2026-04-24 14:56 43.54378 79.45292 0 ft 471 kts 272°
2026-04-24 14:56 43.54503 79.40802 0 ft 465 kts 272°
2026-04-24 14:56 43.54626 79.36369 0 ft 460 kts 272°
2026-04-24 14:56 43.54745 79.31993 0 ft 454 kts 272°
2026-04-24 14:57 43.54861 79.27672 0 ft 448 kts 272°
2026-04-24 14:57 43.54974 79.23396 0 ft 443 kts 272°
2026-04-24 14:57 43.55084 79.19193 0 ft 439 kts 272°
2026-04-24 14:57 43.55192 79.14996 0 ft 435 kts 272°
2026-04-24 14:58 43.55297 79.10838 0 ft 433 kts 272°
2026-04-24 14:58 43.55400 79.06704 0 ft 430 kts 272°
2026-04-24 14:58 43.55468 79.03981 0 ft 426 kts 272°
2026-04-24 14:58 43.55599 78.98591 0 ft 417 kts 272°
2026-04-24 14:59 43.55692 78.94670 0 ft 411 kts 272°
2026-04-24 14:59 43.55784 78.90760 0 ft 405 kts 272°
2026-04-24 14:59 43.55874 78.86896 0 ft 400 kts 272°
2026-04-24 14:59 43.55961 78.83090 0 ft 396 kts 271°
2026-04-24 15:00 43.56019 78.80533 0 ft 393 kts 271°
2026-04-24 15:00 43.56102 78.76823 0 ft 390 kts 272°
2026-04-24 15:00 43.56185 78.73060 0 ft 386 kts 271°
2026-04-24 15:00 43.56264 78.69414 0 ft 384 kts 271°
2026-04-24 15:01 43.56343 78.65707 0 ft 381 kts 271°
2026-04-24 15:01 43.56419 78.62111 0 ft 379 kts 271°
2026-04-24 15:01 43.56494 78.58492 0 ft 376 kts 271°
2026-04-24 15:01 43.56568 78.54892 0 ft 374 kts 271°
2026-04-24 15:02 43.56640 78.51312 0 ft 372 kts 271°
2026-04-24 15:02 43.56710 78.47750 0 ft 370 kts 271°
2026-04-24 15:02 43.56780 78.44200 0 ft 369 kts 271°
2026-04-24 15:02 43.56847 78.40676 0 ft 367 kts 271°
2026-04-24 15:03 43.56914 78.37162 0 ft 365 kts 271°
2026-04-24 15:03 43.56978 78.33697 0 ft 364 kts 271°
2026-04-24 15:03 43.57043 78.30171 0 ft 362 kts 271°
2026-04-24 15:03 43.57104 78.26751 0 ft 361 kts 271°
2026-04-24 15:04 43.57165 78.23295 0 ft 359 kts 271°
2026-04-24 15:04 43.57225 78.19862 0 ft 358 kts 271°
2026-04-24 15:04 43.57283 78.16440 0 ft 356 kts 271°
2026-04-24 15:04 43.57341 78.13026 0 ft 354 kts 271°
2026-04-24 15:05 43.57213 78.09642 0 ft 352 kts 263°
2026-04-24 15:05 43.56826 78.06321 0 ft 350 kts 259°
2026-04-24 15:05 43.56347 78.03036 0 ft 349 kts 258°
2026-04-24 15:05 43.55818 77.99769 0 ft 348 kts 257°
2026-04-24 15:06 43.55260 77.96529 0 ft 346 kts 256°
2026-04-24 15:06 43.54681 77.93317 0 ft 345 kts 256°
2026-04-24 15:06 43.54089 77.90125 0 ft 343 kts 255°
2026-04-24 15:06 43.53495 77.86990 0 ft 341 kts 255°
2026-04-24 15:07 43.52888 77.83834 0 ft 340 kts 255°
2026-04-24 15:07 43.52284 77.80730 0 ft 328 kts 255°
2026-04-24 15:07 43.51701 77.77757 0 ft 317 kts 255°
2026-04-24 15:07 43.51132 77.74868 0 ft 307 kts 255°
2026-04-24 15:08 43.50575 77.72062 0 ft 298 kts 255°
2026-04-24 15:08 43.50040 77.69369 0 ft 283 kts 255°
2026-04-24 15:08 43.49570 77.66856 0 ft 265 kts 259°
2026-04-24 15:08 43.49317 77.64426 0 ft 248 kts 263°
2026-04-24 15:09 43.49145 77.62101 0 ft 241 kts 264°
2026-04-24 15:09 43.48996 77.59847 0 ft 233 kts 265°
2026-04-24 15:09 43.48860 77.57653 0 ft 228 kts 265°
2026-04-24 15:09 43.48729 77.55483 0 ft 226 kts 265°
2026-04-24 15:10 43.48611 77.53324 0 ft 225 kts 268°
2026-04-24 15:10 43.48684 77.51184 0 ft 223 kts 279°
2026-04-24 15:10 43.49023 77.49101 0 ft 222 kts 288°
2026-04-24 15:10 43.49574 77.47110 0 ft 222 kts 292°
2026-04-24 15:11 43.50183 77.45156 0 ft 221 kts 294°
2026-04-24 15:11 43.50803 77.43235 0 ft 218 kts 294°
2026-04-24 15:11 43.51420 77.41355 0 ft 210 kts 294°
2026-04-24 15:11 43.52011 77.39571 0 ft 202 kts 294°
2026-04-24 15:12 43.52489 77.37788 0 ft 197 kts 276°
2026-04-24 15:12 43.51332 77.34738 0 ft 187 kts 223°
2026-04-24 15:12 43.50453 77.33468 0 ft 183 kts 231°
2026-04-24 15:13 43.49689 77.32072 0 ft 182 kts 234°
2026-04-24 15:13 43.48962 77.30698 0 ft 177 kts 234°
2026-04-24 15:13 43.48246 77.29346 0 ft 177 kts 234°
2026-04-24 15:13 43.47556 77.28042 0 ft 176 kts 234°
2026-04-24 15:14 43.46843 77.26692 0 ft 172 kts 234°
2026-04-24 15:14 43.46164 77.25406 0 ft 158 kts 234°
2026-04-24 15:14 43.45541 77.24228 0 ft 150 kts 234°
2026-04-24 15:14 43.44927 77.23037 0 ft 156 kts 236°
2026-04-24 15:15 43.44322 77.21797 0 ft 153 kts 237°
2026-04-24 15:15 43.43748 77.20551 0 ft 157 kts 238°
2026-04-24 15:15 43.43176 77.19271 0 ft 157 kts 238°
2026-04-24 15:15 43.42584 77.18046 0 ft 155 kts 236°
2026-04-24 15:16 43.41975 77.16856 0 ft 150 kts 235°
2026-04-24 15:16 43.41348 77.15729 0 ft 151 kts 232°
2026-04-24 15:16 43.40716 77.14605 0 ft 143 kts 233°
2026-04-24 15:16 43.40142 77.13504 0 ft 142 kts 236°
2026-04-24 15:17 43.39597 77.12354 0 ft 143 kts 237°
2026-04-24 15:17 43.39054 77.11223 0 ft 141 kts 237°
2026-04-24 15:17 43.38509 77.10101 0 ft 143 kts 236°
2026-04-24 15:17 43.37940 77.08986 0 ft 141 kts 235°
2026-04-24 15:18 43.37393 77.07880 0 ft 140 kts 236°
2026-04-24 15:18 43.36835 77.06749 0 ft 144 kts 235°
2026-04-24 15:18 43.36339 77.05756 0 ft 100 kts 237°
2026-04-24 15:18 43.35980 77.05011 0 ft 89 kts 236°
2026-04-24 15:19 43.35658 77.04361 0 ft 80 kts 236°
2026-04-24 15:19 43.35400 77.03853 0 ft 55 kts 234°
2026-04-24 15:19 43.35206 77.03460 0 ft 48 kts 237°
2026-04-24 15:19 43.35033 77.03107 0 ft 43 kts 236°
2026-04-24 15:20 43.34871 77.02786 0 ft 34 kts 236°
2026-04-24 15:20 43.34796 77.02579 0 ft 22 kts 260°
2026-04-24 15:20 43.34786 77.02365 0 ft 23 kts 269°
2026-04-24 15:20 43.34780 77.02158 0 ft 13 kts 268°
2026-04-24 15:21 43.34795 77.02095 0 ft 3 kts 316°
2026-04-24 15:21 43.34809 77.02084 0 ft 4 kts 332°
2026-04-24 15:21 43.34838 77.02069 0 ft 4 kts 348°
2026-04-24 15:21 43.34845 77.02069 0 ft 0 kts